Regional Weather Roundup
Issued by NWS

Home | Current Version | Previous Version | Graphics & Text | Print | Product List | Glossary On
Versions: 1 2 3 4 5 6 7 8 9 10 11 12 13 14 15 16 17 18 19 20 21 22 23 24 25 26 27 28 29 30 31 32 33 34 35 36 37 38 39 40 41 42 43 44 45 46 47 48 49 50
000
ASUS43 KLSX 212059
RWRMO

WEATHER SUMMARY FOR MISSOURI
NATIONAL WEATHER SERVICE SPRINGFIELD MO
400 PM CDT THU MAY 21 2015

NOTE: "FAIR" INDICATES FEW OR NO CLOUDS BELOW 12,000 FEET WITH NO
       SIGNIFICANT WEATHER AND/OR OBSTRUCTIONS TO VISIBILITY.
       CURRENT SKY AND/OR WEATHER CONDITIONS ARE NOT AVAILABLE FOR
       CHILLICOTHE AND FARMINGTON.

MOZ001>031-035>038-043-044-053-054-212200-
...NORTHERN AND WESTERN MISSOURI...

CITY           SKY/WX    TMP DP  RH WIND       PRES   REMARKS
KANSAS CTY INT MOSUNNY   67  45  45 VRB3      30.23F
KANSAS C DTWN  SUNNY     68  44  42 MISG      30.23F
LEE`S SUMMIT   SUNNY     66  42  41 SW3       30.24F
ST JOSEPH      SUNNY     70  42  36 NW8       30.22F
KIRKSVILLE     SUNNY     68  46  45 W10G18    30.17F

$$
MOZ066>068-077>081-088>096-101>105-212200-
...SOUTHWEST MISSOURI...

CITY           SKY/WX    TMP DP  RH WIND       PRES   REMARKS
SPRINGFIELD    PTSUNNY   62  42  47 VRB5      30.23F
JOPLIN         MOSUNNY   63  47  55 NE6       30.25F

$$
MOZ032>034-039>042-045>050-055>058-069>072-212200-
...CENTRAL MISSOURI...

CITY           SKY/WX    TMP DP  RH WIND       PRES   REMARKS
COLUMBIA       SUNNY     66  43  43 NW9       30.21F
JEFFERSON CITY SUNNY     65  40  39 W7        30.21F
ROLLA          SUNNY     61  42  49 N9        30.21F
SEDALIA        SUNNY     66  44  45 NW6       30.23F
OSAGE BEACH    MOSUNNY   64  39  39 N3        30.23F

$$
MOZ051-052-059>065-212200-
...EAST CENTRAL MISSOURI...

CITY           SKY/WX    TMP DP  RH WIND       PRES   REMARKS
ST LOUIS INTL  MOSUNNY   64  40  41 CALM      30.20F
SPIRIT OF STL  MOSUNNY   64  42  44 NW8       30.20S
ST CHARLES     SUNNY     65  39  38 W13       30.18F

$$
MOZ072>076-082>087-097>100-106>115-212200-
...SOUTH CENTRAL AND SOUTHEAST MISSOURI...

CITY           SKY/WX    TMP DP  RH WIND       PRES   REMARKS
CAPE GIRARDEAU PTSUNNY   60  44  55 NW13      30.21S
FARMINGTON     MOSUNNY   55  41  58 N3        30.26F
POPLAR BLUFF   LGT RAIN  58  45  62 N10       30.21F
WEST PLAINS    MOSUNNY   63  44  50 N8        30.22F

$$


USA.gov is the U.S. government's official web portal to all federal, state and local government web resources and services.